Location: *
(51.1248°S, 108.4023°W)
Time: 01:41:32
(UTC+00:00)

Cosmos 1544 - Pass Details

Date: 29 October 2021
Orbit: 467 x 486 km, 82.5° (Epoch: 01 December)

Event Time Altitude Azimuth Distance (km) Brightness Sun altitude
Exits shadow 09:19:26 14° 251° (WSW) 1,447 5.3 -18.3°
Maximum altitude 09:19:48 14° 244° (WSW) 1,440 5.3 -18.2°
Drops below altitude 10° 09:21:50 10° 210° (SSW) 1,685 6.1 -18.1°
Sets 09:24:49 0° 184° (S) 2,581 7.5 -17.8°
